When you browse on this site, cookies collect data to enhance your experience and personalize the content and advertising you see.
Visit our Privacy Policy to learn more. By continuing to use the site, you agree to this use of cookies and data.
  • In Germany
  • List of Countries
  • For 7 days
  • Water Temperature
  • Satellite Maps
  • Weather Map
  • Weather Widgets
  • user-avatar
    Login

    Hourly Weather Paro

    Today, 23 January, Wednesday

    Time Temperature Precipitation Wind Pressure Humidity
    00:00 +2°C° 0 mm 1 mps 559 mmHg 77%
    01:00 +2°C° 0 mm 1 mps 559 mmHg 75%
    02:00 +2°C° 0 mm 1 mps 558 mmHg 72%
    03:00 +2°C° 0 mm 1 mps 558 mmHg 70%
    04:00 +2°C° 0 mm 1 mps 559 mmHg 68%
    05:00 +2°C° 0 mm 1 mps 559 mmHg 66%
    06:00 +2°C° 0 mm 1 mps 559 mmHg 63%
    07:00 +4°C° 0 mm 1 mps 560 mmHg 57%
    08:00 +6°C° 0 mm 1 mps 561 mmHg 52%
    09:00 +8°C° 0 mm 1 mps 562 mmHg 46%
    10:00 +9°C° 0.1 mm 1 mps 562 mmHg 46%
    11:00 +8°C° 0.1 mm 2 mps 562 mmHg 47%
    12:00 +9°C° 0.1 mm 2 mps 562 mmHg 47%
    13:00 +9°C° 0.3 mm 2 mps 562 mmHg 52%
    14:00 +8°C° 0.3 mm 2 mps 561 mmHg 56%
    15:00 +8°C° 0.3 mm 3 mps 560 mmHg 60%
    16:00 +6°C° 0.2 mm 2 mps 560 mmHg 68%
    17:00 +5°C° 0.2 mm 2 mps 559 mmHg 75%
    18:00 +5°C° 0.2 mm 1 mps 558 mmHg 82%
    19:00 +4°C° 0.1 mm 1 mps 559 mmHg 82%
    20:00 +4°C° 0.1 mm 1 mps 559 mmHg 82%
    21:00 +3°C° 0.1 mm 1 mps 559 mmHg 82%
    22:00 +3°C° 0 mm 1 mps 559 mmHg 81%
    23:00 +2°C° 0 mm 1 mps 559 mmHg 80%

    Tomorrow, 24 January, Thursday

    Time Temperature Precipitation Wind Pressure Humidity
    00:00 +2°C° 0 mm 1 mps 559 mmHg 79%
    01:00 +1°C° 0 mm 1 mps 559 mmHg 77%
    02:00 -1°C° 0 mm 2 mps 559 mmHg 74%
    03:00 -1°C° 0 mm 2 mps 559 mmHg 72%
    04:00 -1°C° 0 mm 2 mps 559 mmHg 70%
    05:00 -2°C° 0 mm 2 mps 559 mmHg 68%
    06:00 -2°C° 0 mm 2 mps 559 mmHg 66%
    07:00 +2°C° 0 mm 2 mps 560 mmHg 57%
    08:00 +5°C° 0 mm 1 mps 562 mmHg 49%
    09:00 +8°C° 0 mm 1 mps 564 mmHg 41%
    10:00 +9°C° 0 mm 1 mps 564 mmHg 38%
    11:00 +10°C° 0 mm 2 mps 564 mmHg 34%
    12:00 +12°C° 0 mm 2 mps 564 mmHg 31%
    13:00 +12°C° 0 mm 2 mps 564 mmHg 33%
    14:00 +10°C° 0 mm 2 mps 563 mmHg 34%
    15:00 +10°C° 0 mm 2 mps 562 mmHg 36%
    16:00 +7°C° 0 mm 2 mps 561 mmHg 47%
    17:00 +4°C° 0 mm 2 mps 560 mmHg 58%
    18:00 +2°C° 0 mm 1 mps 559 mmHg 69%
    19:00 -1°C° 0 mm 2 mps 559 mmHg 64%
    20:00 -1°C° 0 mm 2 mps 559 mmHg 59%
    21:00 -1°C° 0 mm 2 mps 560 mmHg 54%
    22:00 -1°C° 0 mm 2 mps 560 mmHg 52%
    23:00 -1°C° 0 mm 2 mps 560 mmHg 50%

    Day after tomorrow, 25 January, Friday

    Time Temperature Precipitation Wind Pressure Humidity
    00:00 -1°C° 0 mm 2 mps 560 mmHg 48%
    01:00 -1°C° 0 mm 2 mps 559 mmHg 46%
    02:00 -1°C° 0 mm 2 mps 559 mmHg 45%
    03:00 -1°C° 0 mm 2 mps 559 mmHg 44%
    04:00 -1°C° 0 mm 2 mps 559 mmHg 43%
    05:00 -1°C° 0 mm 2 mps 559 mmHg 42%
    06:00 +2°C° 0 mm 1 mps 559 mmHg 42%
    07:00 +4°C° 0 mm 1 mps 560 mmHg 37%
    08:00 +6°C° 0 mm 1 mps 562 mmHg 33%
    09:00 +8°C° 0 mm 1 mps 563 mmHg 28%
    10:00 +9°C° 0 mm 1 mps 563 mmHg 30%
    11:00 +9°C° 0 mm 2 mps 564 mmHg 31%
    12:00 +9°C° 0 mm 2 mps 564 mmHg 33%
    13:00 +9°C° 0.1 mm 2 mps 563 mmHg 40%
    14:00 +8°C° 0.2 mm 2 mps 562 mmHg 46%
    15:00 +7°C° 0.1 mm 2 mps 561 mmHg 53%
    16:00 +6°C° 0.4 mm 1 mps 560 mmHg 62%
    17:00 +5°C° 0.4 mm 1 mps 560 mmHg 71%
    18:00 +4°C° 0.4 mm 1 mps 559 mmHg 80%
    19:00 +4°C° 0.4 mm 1 mps 560 mmHg 82%
    20:00 +3°C° 0.4 mm 1 mps 560 mmHg 84%
    21:00 +3°C° 0.4 mm 1 mps 561 mmHg 85%
    22:00 +3°C° 0.7 mm 1 mps 560 mmHg 87%
    23:00 +3°C° 0.7 mm 1 mps 560 mmHg 88%

    26 January, Saturday

    Time Temperature Precipitation Wind Pressure Humidity
    00:00 +3°C° 0.7 mm 1 mps 560 mmHg 90%
    01:00 +3°C° 1 mm 1 mps 560 mmHg 90%
    02:00 +3°C° 1 mm 1 mps 559 mmHg 91%
    03:00 +3°C° 1 mm 1 mps 559 mmHg 91%
    04:00 +3°C° 1.3 mm 1 mps 559 mmHg 92%
    05:00 +3°C° 1.3 mm 1 mps 559 mmHg 93%
    06:00 +3°C° 1.3 mm 1 mps 559 mmHg 94%
    07:00 +3°C° 1.4 mm 1 mps 559 mmHg 93%
    08:00 +4°C° 1.4 mm 1 mps 560 mmHg 92%
    09:00 +4°C° 1.4 mm 1 mps 561 mmHg 91%
    10:00 +4°C° 1.9 mm 1 mps 560 mmHg 91%
    11:00 +5°C° 1.9 mm 1 mps 560 mmHg 91%
    12:00 +5°C° 1.9 mm 1 mps 560 mmHg 90%
    13:00 +5°C° 1.1 mm 1 mps 560 mmHg 90%
    14:00 +5°C° 1.1 mm 1 mps 560 mmHg 90%
    15:00 +5°C° 1.1 mm 1 mps 560 mmHg 90%
    16:00 +5°C° 0.8 mm 1 mps 560 mmHg 91%
    17:00 +4°C° 0.8 mm 1 mps 560 mmHg 93%
    18:00 +4°C° 0.8 mm 1 mps 560 mmHg 94%
    19:00 +4°C° 0.9 mm 1 mps 560 mmHg 94%
    20:00 +4°C° 0.9 mm 1 mps 560 mmHg 94%
    21:00 +3°C° 0.9 mm 1 mps 561 mmHg 94%
    22:00 +3°C° 0.3 mm 1 mps 560 mmHg 94%
    23:00 +2°C° 0.3 mm 1 mps 560 mmHg 93%

    27 January, Sunday

    Time Temperature Precipitation Wind Pressure Humidity
    00:00 +2°C° 0.3 mm 1 mps 560 mmHg 93%
    01:00 +1°C° 0.1 mm 1 mps 560 mmHg 92%
    02:00 +1°C° 0.1 mm 1 mps 560 mmHg 90%
    03:00 0°C° 0.1 mm 1 mps 559 mmHg 89%
    04:00 0°C° 0 mm 1 mps 560 mmHg 88%
    05:00 -1°C° 0 mm 1 mps 560 mmHg 86%
    06:00 -1°C° 0 mm 1 mps 560 mmHg 85%
    07:00 +1°C° 0 mm 1 mps 561 mmHg 82%
    08:00 +3°C° 0 mm 1 mps 562 mmHg 79%
    09:00 +5°C° 0 mm 1 mps 564 mmHg 76%
    10:00 +6°C° 0 mm 1 mps 563 mmHg 76%
    11:00 +6°C° 0 mm 1 mps 563 mmHg 76%
    12:00 +6°C° 0 mm 2 mps 563 mmHg 77%
    13:00 +6°C° 0.1 mm 2 mps 562 mmHg 77%
    14:00 +6°C° 0.1 mm 2 mps 561 mmHg 77%
    15:00 +6°C° 0.1 mm 2 mps 561 mmHg 78%
    16:00 +4°C° 0.1 mm 2 mps 560 mmHg 80%
    17:00 +4°C° 0.1 mm 1 mps 560 mmHg 82%
    18:00 +2°C° 0.1 mm 1 mps 559 mmHg 84%
    19:00 +1°C° 0 mm 1 mps 559 mmHg 82%
    20:00 0°C° 0 mm 1 mps 559 mmHg 80%
    21:00 -4°C° 0 mm 2 mps 558 mmHg 78%
    22:00 -4°C° 0 mm 2 mps 558 mmHg 78%
    23:00 -5°C° 0 mm 2 mps 558 mmHg 78%

    28 January, Monday

    Time Temperature Precipitation Wind Pressure Humidity
    00:00 -5°C° 0 mm 2 mps 558 mmHg 78%
    01:00 -5°C° 0 mm 2 mps 558 mmHg 78%
    02:00 -6°C° 0 mm 2 mps 558 mmHg 77%
    03:00 -6°C° 0 mm 2 mps 557 mmHg 76%
    04:00 -6°C° 0 mm 2 mps 557 mmHg 76%
    05:00 -7°C° 0 mm 2 mps 558 mmHg 75%
    06:00 -7°C° 0 mm 2 mps 558 mmHg 74%
    07:00 -4°C° 0 mm 2 mps 559 mmHg 71%
    08:00 +1°C° 0 mm 1 mps 561 mmHg 68%
    09:00 +4°C° 0 mm 1 mps 562 mmHg 64%
    10:00 +5°C° 0 mm 1 mps 562 mmHg 65%
    11:00 +5°C° 0 mm 1 mps 561 mmHg 67%
    12:00 +5°C° 0 mm 2 mps 561 mmHg 68%
    13:00 +5°C° 0.1 mm 2 mps 560 mmHg 70%
    14:00 +5°C° 0.1 mm 2 mps 560 mmHg 73%
    15:00 +5°C° 0.1 mm 2 mps 559 mmHg 75%
    16:00 +3°C° 0.2 mm 2 mps 559 mmHg 80%
    17:00 +2°C° 0.2 mm 1 mps 558 mmHg 85%
    18:00 +1°C° 0.2 mm 1 mps 558 mmHg 89%
    19:00 0°C° 0.1 mm 1 mps 558 mmHg 88%
    20:00 -1°C° 0.1 mm 1 mps 558 mmHg 87%
    21:00 -2°C° 0.1 mm 1 mps 558 mmHg 87%
    22:00 -2°C° 0 mm 1 mps 558 mmHg 85%
    23:00 -5°C° 0 mm 2 mps 558 mmHg 83%
    Show more